Location: B?lite?ti
(46.2833°N, 22.7333°E)
Time: 04:49:26
(UTC+00:00)

Meteor 2-19 Rocket - Pass Details

Date: 24 January 2021
Orbit: 935 x 959 km, 82.5° (Epoch: 26 February)

Event Time Altitude Azimuth Distance (km) Brightness Sun altitude
Rises 17:15:05 0° 178° (S) 3,626 7.6 -19.4°
Reaches altitude 10° 17:17:35 10° 175° (S) 2,685 6.8 -19.8°
Maximum altitude 17:23:40 67° 95° (E) 1,040 4.4 -20.8°
Drops below altitude 10° 17:29:47 10° 14° (NNE) 2,700 6.6 -21.9°
Sets 17:32:18 0° 12° (NNE) 3,647 7.3 -22.3°
